Location: *
(40.8397°N, 14.2533°E)
Time: 16:36:15
(UTC+00:00)

Daily predictions for brighter satellites

Satellite Brightness Start Highest point End
(mag) Time Altitude Azimuth Time Altitude Azimuth Time Altitude Azimuth
Cosmos 1844 3.7 18:46:49 10° SSW 18:52:27 85° ESE 18:58:12 10° NNE
Lacrosse 5 4.1 18:51:38 10° NNW 18:54:53 17° NNE 18:58:10 10° ENE
STARLINK-1217 4.2 18:52:06 10° WSW 18:55:05 43° NW 18:58:06 10° NE
STARLINK-1178 3.7 18:51:01 10° NW 18:55:10 73° NE 18:59:17 10° ESE
STARLINK-1229 4.3 18:52:59 10° WSW 18:55:58 43° NNW 18:58:58 10° NE
COSMOS 2406 4.5 18:51:36 10° N 18:56:29 27° NE 19:01:20 10° ESE
STARLINK-1270 4.3 18:53:54 10° WSW 18:56:53 42° NNW 18:59:53 10° NE
STARLINK-1271 3.6 18:54:19 10° SW 18:58:25 73° SE 19:02:34 10° NE
Cosmos 1908 Rocket 3.9 18:54:21 10° N 18:58:41 49° E 19:03:00 10° SSE
STARLINK-1189 4.4 18:55:43 10° WSW 18:58:41 40° NNW 19:01:40 10° NE
DMSP B5D2-2 4.2 18:53:27 10° NNE 18:58:43 62° E 19:03:55 10° S
STARLINK-1188 4.4 18:56:40 10° WSW 18:59:37 40° NNW 19:02:35 10° NE
SJ-6B 2.8 18:55:58 10° S 18:59:43 80° W 19:03:27 10° NNW
STARLINK-1120 3.7 18:55:59 10° NW 19:00:08 80° NE 19:04:16 10° SE
STARLINK-1154 3.6 18:59:17 10° SW 19:03:24 80° SE 19:07:33 10° NE
STARLINK-1131 3.6 19:00:58 10° NW 19:05:07 87° NE 19:09:14 10° SE
Cosmos 2056 Rocket 3.9 19:00:35 10° S 19:05:19 40° ESE 19:10:05 10° NE
ASTEX 1 3.4 19:00:42 10° SSE 19:05:34 79° E 19:10:30 10° N
Cosmos 1544 4.5 19:03:59 10° NNE 19:06:54 22° ENE 19:09:42 10° SE
CREW DRAGON DEMO-1 DEB 3.5 19:04:00 10° NW 19:07:01 46° NNE 19:10:00 10° ESE
Hubble Space Telescope 2.7 19:05:14 10° SW 19:07:34 15° S 19:09:53 10° SE
STARLINK-1197 3.6 19:04:14 10° SW 19:08:22 87° SE 19:12:31 10° NE
NOSS 2-3 (E) 3.5 19:05:42 10° SSW 19:09:50 65° ESE 19:14:33 10° NE
STARLINK-1190 3.6 19:05:55 10° NW 19:10:04 86° SW 19:14:01 11° SE
Cosmos 2346 Rocket 4.4 19:04:41 10° S 19:10:44 78° E 19:16:53 10° N
Cosmos 389 Rocket 2.3 19:07:25 10° S 19:10:50 75° E 19:14:19 10° NNE
OPS 8737 4.4 19:07:54 10° SSW 19:12:00 85° SE 19:15:10 10° NE
STARLINK-1087 1.6 19:11:09 10° NW 19:13:07 76° NE 19:14:32 16° SE
Resurs 1-3 3.6 19:08:49 10° SSE 19:13:10 69° ENE 19:17:31 10° N
STARLINK-1198 3.7 19:09:13 10° SW 19:13:21 86° NW 19:17:31 10° NE
TELKOM 3 2.6 19:11:48 10° NW 19:13:54 83° NNE 19:15:36 15° ESE
STARLINK-1129 3.7 19:10:56 10° NW 19:15:04 79° SW 19:18:49 12° SE
STARLINK-1199 3.8 19:14:11 10° SW 19:18:19 79° NW 19:22:28 10° NE
Tsikada Rocket 4.0 19:12:16 10° S 19:18:24 67° E 19:24:32 10° NNE
MOS 1 Rocket 3.5 19:14:57 10° N 19:19:23 66° WNW 19:23:37 10° SSW
STARLINK-1134 3.7 19:15:55 10° NW 19:20:02 72° SW 19:23:36 14° SE
Cosmos 1356 3.8 19:18:54 10° N 19:22:15 47° ENE 19:25:05 13° SSE
STARLINK-1210 3.9 19:19:12 10° WSW 19:23:20 72° NW 19:27:28 10° NE
Cosmos 2242 Rocket 4.0 19:19:16 10° SSW 19:23:37 64° W 19:28:00 10° N
MetOp-A 4.3 19:18:54 10° S 19:24:14 76° WSW 19:29:37 10° NNW
STARLINK-1135 3.8 19:20:54 10° WNW 19:25:00 65° SW 19:28:23 15° SE
Cosmos 1743 2.7 19:23:45 10° N 19:27:34 84° W 19:31:21 10° S
STARLINK-1219 4.1 19:24:11 10° WSW 19:28:17 66° NW 19:32:25 10° NE
Okean 3 4.4 19:25:47 13° SE 19:28:55 29° E 19:32:40 10° NNE
NOSS 2-3 (D) 3.6 19:25:40 10° SW 19:29:51 87° NW 19:34:41 10° NE
Cosmos 2082 Rocket 3.9 19:25:43 10° N 19:29:58 21° NE 19:34:09 10° E
STARLINK-1141 3.9 19:25:54 10° WNW 19:29:58 59° SW 19:33:10 16° SSE
STARLINK-1192 4.4 19:27:15 10° S 19:30:48 28° SE 19:34:24 10° ENE
STARLINK-1211 4.2 19:29:12 10° WSW 19:33:17 60° NW 19:37:23 10° NE
Cosmos 1833 Rocket 3.7 19:29:42 10° N 19:34:46 33° ENE 19:38:45 15° ESE
STARLINK-1140 4.1 19:30:54 10° WNW 19:34:56 53° SW 19:37:57 17° SSE
Aureole 1 Rocket 3.5 19:31:15 10° NNW 19:35:31 62° ENE 19:40:01 16° SSE
STARLINK-1244 4.3 19:32:05 10° SSW 19:35:45 31° SE 19:39:26 10° ENE
Cosmos 1452 Rocket 4.5 19:32:35 13° SSE 19:36:13 27° E 19:40:37 10° NE
CZ-2C R/B 3.2 19:31:33 10° N 19:37:06 66° WNW 19:42:39 10° SSW
STARLINK-1245 4.4 19:34:13 10° WSW 19:38:16 55° NW 19:42:21 10° NE
GPS 2-04 Rocket1 4.0 19:36:09 10° SSW 19:38:36 17° SSE 19:38:38 17° SSE
Cosmos 407 Rocket 3.5 19:34:07 10° NNW 19:39:29 86° ENE 19:44:02 15° SSE
STARLINK-1156 4.2 19:35:55 10° WNW 19:39:54 48° SW 19:42:44 18° SSE
STARLINK-1138 4.2 19:36:55 10° SSW 19:40:41 35° SE 19:44:28 10° ENE
Cosmos 1420 Rocket 4.3 19:35:58 10° S 19:40:52 44° ESE 19:45:47 10° NNE
STARLINK-1074 4.4 19:38:13 10° NW 19:42:11 43° NNE 19:45:16 15° E
STARLINK-1148 4.4 19:40:55 10° WNW 19:44:51 43° SW 19:47:30 18° SSE
STARLINK-1143 4.0 19:41:47 10° SSW 19:45:38 38° SE 19:49:29 10° ENE
Okean 1-7 3.5 19:41:37 10° SSW 19:45:50 61° W 19:50:05 10° N
Meteor 2-9 Rocket 4.1 19:40:55 10° N 19:46:19 75° E 19:50:39 16° SSE
STARLINK-1203 4.0 19:45:06 10° SSW 19:49:04 42° SE 19:53:02 10° ENE
NOSS 3-1 (A) 4.0 19:44:33 10° SW 19:49:53 57° NW 19:56:04 10° NNE
STARLINK-1241 3.9 19:46:41 10° SSW 19:50:36 42° SE 19:54:32 10° ENE
STARLINK-1088 4.2 19:48:08 10° NW 19:52:11 50° NNE 19:54:50 20° ESE
STARLINK-1239 3.8 19:51:35 10° SSW 19:55:33 47° SE 19:59:32 10° ENE
STARLINK-1115 4.1 19:53:05 10° NW 19:57:10 54° NE 19:59:36 22° ESE
ATLAS 3B CENTAUR R/B 4.0 19:49:07 10° SW 19:58:16 23° S 20:00:55 20° SSE
BREEZE-M DEB (TANK) 3.7 19:57:30 10° W 19:59:31 26° SW 20:00:03 24° SSW
ERBS 2.2 19:56:28 10° SW 19:59:44 84° NW 20:03:04 10° NE
STARLINK-1240 3.7 19:56:30 10° SSW 20:00:31 52° SE 20:04:34 10° ENE
Cosmos 2278 Rocket 2.1 19:55:31 10° SSW 20:01:11 83° ESE 20:06:54 10° NNE
STARLINK-1076 3.9 19:58:03 10° NW 20:02:09 59° NE 20:04:23 25° ESE
Cosmos 1975 3.2 19:58:43 10° NNW 20:02:44 63° W 20:05:40 17° S
SPOT 1/Viking Rocket 3.8 20:00:05 23° SE 20:03:06 52° ENE 20:08:07 10° N
Cosmos 2221 Rocket 3.6 19:59:57 17° S 20:03:17 69° E 20:07:48 10° NNE
Cosmos 1190 Rocket 4.2 19:58:13 10° NNW 20:03:25 71° WSW 20:07:09 19° S
USA 245 2.9 20:02:37 31° SSE 20:04:10 65° ENE 20:07:11 10° N
STARLINK-1216 3.6 20:01:25 10° SW 20:05:28 57° SE 20:09:33 10° ENE
STARLINK-1092 3.8 20:02:59 10° NW 20:07:07 64° NE 20:09:09 28° ESE
Cosmos 1140 Rocket 3.6 20:02:42 10° NNW 20:07:54 72° WSW 20:11:22 21° S
EXPRESS MD2 3.4 20:08:07 15° SSW 20:10:22 45° SE 20:15:22 10° ENE
STARLINK-1237 3.5 20:06:21 10° SW 20:10:26 63° SE 20:14:33 10° ENE
STARLINK-1080 3.7 20:08:01 10° NW 20:12:10 71° NE 20:13:59 32° ESE
Resurs 01 Rocket 2.8 20:08:35 11° SSW 20:12:31 39° W 20:16:42 10° NNW
Meteor 1-4 Rocket 3.8 20:11:31 10° SSW 20:14:46 38° WNW 20:18:02 10° N
STARLINK-1202 3.5 20:11:19 10° SW 20:15:24 70° SE 20:19:33 10° NE
STARLINK-1090 3.6 20:12:56 10° NW 20:17:06 77° NE 20:18:44 36° ESE
Sich 1 Rocket 4.0 20:13:50 10° NNW 20:18:22 61° W 20:21:21 21° S
Cosmos 1437 Rocket 3.1 20:17:49 38° ESE 20:18:25 42° E 20:22:00 10° NNE
STARLINK-1089 3.5 20:17:55 10° NW 20:22:05 84° NE 20:23:30 40° ESE
ERS-1 Rocket 3.2 20:20:14 31° SE 20:22:28 57° ENE 20:27:24 10° N
SeaSat 1 4.0 20:19:00 10° ENE 20:21:41 18° E 20:21:41 18° E
STARLINK-1246 3.5 20:21:13 10° SW 20:25:20 84° SE 20:29:30 10° NE
STARLINK-1107 3.5 20:22:54 10° NW 20:27:04 89° SW 20:28:17 45° SE
ISS -1.8 20:24:23 10° NW 20:27:14 24° NNE 20:28:52 17° ENE
Terra 2.6 20:26:03 30° ESE 20:27:36 38° ENE 20:31:59 10° N
Cosmos 2279 Rocket 3.9 20:22:51 10° N 20:29:08 85° E 20:32:41 28° S
Cosmos 1954 Rocket 4.1 20:24:23 10° NNW 20:29:37 72° WSW 20:32:15 30° S
STARLINK-1224 3.5 20:26:11 10° SW 20:30:20 88° NW 20:34:30 10° NE
STARLINK-1066 3.5 20:27:55 10° NW 20:32:04 81° SW 20:33:06 49° SE
Okean 2 Rocket 3.2 20:27:50 10° NNW 20:32:15 71° W 20:34:09 33° S
Spot 2 Rocket 3.9 20:30:33 24° S 20:33:31 57° W 20:38:28 10° NNW
STARLINK-1225 3.6 20:31:09 10° SW 20:35:18 81° NW 20:39:28 10° NE
STARLINK-1081 3.5 20:32:53 10° NW 20:37:01 74° SW 20:37:52 53° SSE
Lacrosse 5 2.4 20:33:58 10° NW 20:38:55 52° NE 20:41:04 31° E
STARLINK-1230 3.7 20:36:09 10° WSW 20:40:17 74° NW 20:44:26 10° NE
Meteor 1-12 Rocket 4.4 20:35:01 10° NNW 20:40:39 71° W 20:43:39 29° S
COSMOS 2406 4.0 20:35:30 10° NW 20:40:59 46° WSW 20:44:02 24° SSW
STARLINK-1070 3.6 20:37:52 10° NW 20:41:59 67° SW 20:42:38 56° S
Cosmos 371 Rocket 3.5 20:38:42 16° SSW 20:42:34 71° WNW 20:47:26 10° NNE
Okean 1 Rocket 3.5 20:40:27 10° N 20:44:46 46° ENE 20:45:25 42° ESE
STARLINK-1243 3.9 20:41:08 10° WSW 20:45:15 68° NW 20:49:24 10° NE
Cosmos 2151 Rocket 3.7 20:41:14 10° NNW 20:45:47 75° W 20:47:15 42° S
Meteor 1-23 Rocket 4.2 20:43:30 36° SSE 20:45:50 67° E 20:51:28 10° NNE
STARLINK-1069 3.7 20:42:51 10° WNW 20:46:57 61° SW 20:47:25 56° S
SL-4 R/B 1.7 20:45:28 10° NNW 20:48:05 56° N 20:48:05 56° N
STARLINK-1236 4.0 20:46:10 10° WSW 20:50:16 62° NW 20:54:24 10° NE
NOSS 8 (F) 4.4 20:51:00 71° WNW 20:51:04 71° NW 20:54:06 10° NNE
Cosmos 1331 Rocket 4.3 20:50:33 42° ESE 20:51:06 44° ESE 20:56:00 10° NNE
STARLINK-1085 3.8 20:47:52 10° WNW 20:51:56 55° SW 20:52:13 53° SSW
STARLINK-1086 3.9 20:52:51 10° WNW 20:56:52 50° SW 20:56:59 49° SW
Cosmos 1092 Rocket 4.3 20:57:05 39° SE 20:58:40 48° E 21:04:31 10° NNE
Crew Dragon 3.4 20:56:56 10° NNW 20:57:34 15° NNW 20:57:34 15° NNW
Cosmos 2297 3.6 20:57:27 39° S 20:59:35 71° ESE 21:05:16 10° NNE
STARLINK-1269 4.4 20:56:10 10° WSW 21:00:13 53° NNW 21:04:17 10° NE
STARLINK-1095 4.1 20:57:53 10° WNW 21:01:47 45° SW 21:01:47 45° SW
CARTOSAT-1 3.9 21:01:34 46° SSW 21:02:31 57° W 21:06:47 10° NNW
STARLINK-1117 4.4 21:00:09 10° NW 21:04:09 45° NNE 21:05:01 39° ENE
STARLINK-1077 4.4 21:02:54 10° WNW 21:06:34 40° SW 21:06:34 40° SW
BREEZE M DEB (TANK) 3.9 21:02:50 10° W 21:07:42 38° NNW 21:09:29 15° NE
STARLINK-1078 4.2 21:05:07 10° NW 21:09:09 49° NNE 21:09:48 44° ENE
SPOT 5 3.4 21:10:00 40° SSW 21:11:34 58° W 21:16:47 10° NNW
STARLINK-1108 4.1 21:10:04 10° NW 21:14:08 53° NE 21:14:35 50° ENE
Cosmos 2082 Rocket 2.4 21:08:52 10° NNW 21:14:32 64° WSW 21:16:03 46° SSW
Cosmos 1461 3.0 21:15:49 62° WSW 21:16:24 74° WNW 21:20:43 10° NNE
Cosmos 1833 Rocket 3.8 21:13:37 10° NW 21:18:39 35° WSW 21:20:27 28° SW
STARLINK-1071 3.9 21:15:02 10° NW 21:19:07 57° NE 21:19:22 56° NE
Cosmos 1378 3.4 21:20:31 64° N 21:20:31 64° N 21:23:43 10° N
USA 215 4.2 21:16:01 15° E 21:21:05 41° NNE 21:27:08 10° NW
STARLINK-1110 3.9 21:19:06 10° NW 21:23:13 62° NE 21:23:17 62° NE
Aureole 2 Rocket 3.7 21:24:16 36° NNW 21:24:16 36° NNW 21:26:25 10° N
Thor Agena Rocket 3.7 21:19:13 10° NNE 21:24:25 53° E 21:24:39 53° ESE
JB-3 4.4 21:21:35 10° NNE 21:25:34 81° NNE 21:25:34 81° NNE
Cosmos 2369 Rocket 3.0 21:26:15 35° E 21:26:15 35° E 21:30:54 10° NE
Cosmos 304 Rocket 4.3 21:24:48 36° SW 21:26:28 56° WNW 21:31:11 10° N
NOSS 2-2 (D) 4.2 21:27:50 39° NE 21:27:50 39° NE 21:30:21 10° NE
Cosmos 1943 Rocket 2.3 21:28:55 53° ESE 21:29:00 54° ESE 21:34:24 10° NNE
STARLINK-1124 3.8 21:24:57 10° NW 21:28:54 67° NNE 21:28:54 67° NNE
Cosmos 1805 3.5 21:28:09 10° N 21:31:34 66° NNW 21:31:34 66° NNW
STARLINK-1122 3.8 21:29:56 10° NW 21:33:42 68° N 21:33:42 68° N
STARLINK-1126 3.9 21:34:56 10° NW 21:38:32 64° NNW 21:38:32 64° NNW
Cosmos 1842 4.0 21:43:39 49° NNE 21:43:39 49° NNE 21:46:35 10° N
STARLINK-1082 4.1 21:39:52 10° NW 21:43:15 58° NW 21:43:15 58° NW
NOSS 2-2 (E) 4.1 21:45:11 45° NW 21:45:11 45° NW 21:48:53 10° NNE
CENTAUR R/B 4.2 21:38:57 10° NNW 21:46:17 38° NE 21:52:40 16° ESE
Meteor 1-21 4.2 21:46:05 59° ESE 21:46:25 61° E 21:51:58 10° NNE
STARLINK-1100 4.3 21:44:51 10° NW 21:48:03 52° WNW 21:48:03 52° WNW
Cosmos 2026 Rocket 3.9 21:48:12 58° S 21:49:33 90° ESE 21:55:55 10° N
Cosmos 1553 Rocket 4.3 21:43:48 10° N 21:49:56 50° ENE 21:50:58 46° ESE
STARLINK-1083 4.5 21:49:49 10° NW 21:52:47 45° WNW 21:52:47 45° WNW
Okean 2 4.0 21:56:17 51° WNW 21:56:17 51° WNW 21:59:59 10° N
Cosmos 1975 Rocket 3.4 21:57:35 60° WNW 21:57:35 60° WNW 22:01:50 10° N
Cosmos 292 Rocket 4.3 22:00:50 49° ENE 22:00:50 49° ENE 22:04:45 10° NNE
SeaSat 1 2.9 21:55:25 10° NNE 22:00:15 56° WNW 22:01:28 43° WSW
Cosmos 2263 4.5 22:04:13 52° E 22:04:13 52° E 22:09:14 10° NNE
ISS -1.1 22:00:54 10° WNW 22:01:47 17° WNW 22:01:47 17° WNW
Terra 3.5 22:04:56 22° WSW 22:05:26 22° W 22:09:07 10° NW
ATLAS 2AS CENTAUR R/B 3.2 22:08:00 48° SE 22:08:54 50° ESE 22:16:31 10° NE
Cosmos 1656 Rocket 4.4 22:10:12 39° E 22:10:12 39° E 22:14:42 10° NE
Cosmos 1242 Rocket 4.1 22:11:39 35° N 22:11:39 35° N 22:13:54 10° N
Helios 1A 4.5 22:15:41 28° ENE 22:15:41 28° ENE 22:18:52 10° N
Spot 4 4.0 22:17:50 67° WNW 22:17:50 67° WNW 22:22:24 10° NNW
Cosmos 968 Rocket 3.9 22:12:35 10° N 22:17:36 50° ENE 22:17:45 50° ENE
NOSS 3-2 (A) 4.1 22:10:50 10° NNW 22:18:31 79° NE 22:21:24 46° SE
Cosmos 1271 Rocket 4.0 22:20:18 38° NNE 22:20:18 38° NNE 22:22:47 10° N
Cosmos 2266 Rocket 4.3 22:19:17 48° ESE 22:19:39 48° E 22:25:27 10° NNE
BREEZE-M DEB (TANK) 4.5 22:08:59 10° W 22:20:16 43° NNW 22:23:47 10° NE
Lacrosse 5 3.4 22:17:24 10° WNW 22:20:15 24° W 22:20:15 24° W
Meteor 2-10 4.5 22:17:18 10° N 22:22:03 48° ENE 22:22:03 48° ENE
USA 238 DEB 3.8 22:19:45 10° NW 22:27:03 86° ENE 22:28:52 56° SE
Cosmos 1707 4.0 22:28:28 39° N 22:28:28 39° N 22:31:02 10° N
USA 238 3.8 22:19:50 10° NW 22:27:08 85° ENE 22:28:59 56° SE
Cosmos 1455 Rocket 4.2 22:29:21 10° NNW 22:32:37 35° WNW 22:32:37 35° WNW
Cosmos 1025 Rocket 3.7 22:34:49 52° NNW 22:34:49 52° NNW 22:38:08 10° N
Cosmos 1340 Rocket 4.3 22:30:24 10° N 22:33:11 32° NE 22:33:11 32° NE
Nimbus 7 Rocket 4.4 22:28:37 10° NNE 22:34:42 77° WNW 22:35:34 65° SW
COSMOS 2455 3.5 22:35:47 40° E 22:35:47 40° E 22:40:45 10° NE
Cosmos 1953 3.6 22:31:33 10° N 22:34:15 38° NNE 22:34:15 38° NNE
Cosmos 1486 Rocket 4.0 22:30:29 10° NNW 22:35:35 82° NW 22:35:35 82° NW
Cosmos 2098 Rocket 4.4 22:47:16 51° ESE 22:48:16 56° E 22:55:25 10° NNE
Meteor 2-15 4.4 22:46:17 10° N 22:52:25 68° E 22:53:02 63° ESE
SL-4 R/B 3.1 22:59:59 47° NE 22:59:59 47° NE 23:03:25 10° NE
ATLAS 5 CENTAUR R/B 4.0 23:00:59 19° N 23:00:59 19° N 23:01:51 10° NNE
ALOS 2 3.7 23:01:01 38° WNW 23:01:01 38° WNW 23:04:10 10° NNW
Cosmos 2315 Rocket 4.0 22:55:57 10° N 23:02:08 66° E 23:02:52 61° ESE
USA 215 3.1 23:03:19 65° SSW 23:03:50 68° SW 23:10:23 10° NW
Cosmos 2228 4.1 23:00:12 10° N 23:03:26 39° NE 23:03:26 39° NE
Cosmos 1992 Rocket 4.4 23:08:31 52° WNW 23:08:42 52° WNW 23:13:47 10° N
Cosmos 2369 Rocket 3.5 23:07:59 27° W 23:09:47 33° WNW 23:14:53 10° N
Meteor 2-15 Rocket 4.4 23:03:44 10° N 23:09:54 75° E 23:10:32 68° SE
Cosmos 1943 Rocket 4.0 23:10:23 17° W 23:13:04 23° NW 23:17:28 10° N
Cosmos 2058 Rocket 4.5 23:10:39 10° NNE 23:14:21 31° ENE 23:14:21 31° ENE
S3M 4.5 23:12:56 10° NNW 23:18:43 44° W 23:19:11 43° WSW
Meteor 1-24 Rocket 4.1 23:20:52 46° E 23:20:52 46° E 23:25:57 10° NNE
ATLAS CENTAUR R/B 2.3 23:25:24 49° NNE 23:25:24 49° NNE 23:28:32 10° NNE
NOSS 3-2 (C) 4.1 23:17:06 10° NW 23:24:47 68° WSW 23:26:35 55° S
Okean 1-7 Rocket 4.4 23:27:40 46° ENE 23:27:40 46° ENE 23:31:18 10° NNE
Cosmos 1726 4.2 23:24:03 10° NNW 23:25:42 22° NW 23:25:42 22° NW
NOSS 3-4 (A) 3.8 23:29:50 45° W 23:31:18 56° NW 23:37:29 10° NNE
NOSS 3-4 (C) 3.8 23:29:57 45° W 23:31:24 56° NW 23:37:36 10° NNE
ATLAS 3B R/B 2.9 23:28:45 10° NNW 23:35:33 67° NE 23:38:47 34° SE
Cosmos 1606 Rocket 4.2 23:31:47 10° NNW 23:35:04 50° NNW 23:35:04 50° NNW
Meteor 2-21 4.3 23:36:50 70° SSE 23:37:32 81° E 23:43:44 10° N
CENTAUR R/B 3.2 23:29:25 10° NW 23:37:37 67° WSW 23:39:47 51° S
RESURS DK-1 3.5 23:39:42 41° NE 23:39:42 41° NE 23:42:33 10° NNE
Meteor 2-5 Rocket 3.5 23:41:51 81° WSW 23:42:03 83° W 23:47:39 10° N
Cosmos 1777 Rocket 4.0 23:42:12 10° NNW 23:47:27 73° ENE 23:47:45 71° E
Cosmos 1626 3.5 23:50:51 39° NNE 23:50:51 39° NNE 23:53:16 10° N
Cosmos 1300 3.8 23:50:22 10° N 23:53:09 42° NNE 23:53:09 42° NNE
BREEZE-M DEB (TANK) 4.2 23:56:49 17° NNE 23:56:49 17° NNE 23:57:28 10° NE
